CARTOSAT-2D

Last updated on Thu Oct 30 2025 00:02:32 GMT+0000 (Coordinated Universal Time)

1 41948U 17008A 25302.50440918 .00007052 00000+0 33785-3 0 9997 2 41948 97.4449 0.6588 0004910 332.4187 27.6786 15.19228748482551
UTC large
Height (km)
Speed (km/s)
/
Latitude / Longitude
Inclination (degrees)
Orbital Period (minutes)
Azimuth
Elevation
Range (km)
Doppler Factor

Next 0 passes for location: London (51.5072 / 0.1276)

Sorry there are no passes over London.